Location: Antin
(43.3330°N, 0.2804°E)
Time: 19:54:34
(UTC+00:00)

SME Rocket - Pass Details

Date: 13 December 2023
Orbit: 550 x 2645 km, 99.9° (Epoch: 20 February)

Event Time Altitude Azimuth Distance (km) Brightness Sun altitude
Rises 18:21:54 0° 154° (SSE) 3,567 6.8 -20.7°
Reaches altitude 10° 18:23:56 10° 152° (SSE) 2,816 6.2 -21.1°
Maximum altitude 18:30:21 73° 69° (ENE) 1,431 4.6 -22.2°
Drops below altitude 10° 18:40:28 10° 347° (NNW) 4,339 7.4 -24.0°
Sets 18:44:16 0° 347° (NNW) 5,621 8.0 -24.7°
